Location: Unspecified
(41.5000°N, 0.0000°E)
Time: 02:39:04
(UTC+00:00)

Vanguard 2 - Pass Details

Date: 22 June 2019
Orbit: 553 x 2938 km, 32.9° (Epoch: 17 August)

Event Time Altitude Azimuth Distance (km) Brightness Sun altitude
Rises 09:58:16 0° 254° (WSW) 3,442 10.6 58.5°
Reaches altitude 10° 10:00:27 10° 247° (WSW) 2,717 10.2 58.9°
Maximum altitude 10:06:48 48° 175° (S) 1,700 10.4 60.0°
Drops below altitude 10° 10:17:16 10° 106° (ESE) 4,410 12.0 61.7°
Sets 10:21:48 0° 102° (ESE) 5,795 12.4 62.4°
